Weather History for Eugene, OR

Change the Weather History Date:

Sunday, February 17, 2013

  Actual Average Record
Temperature  
Mean Temperature 41 °F 43 °F  
Max Temperature 51 °F 51 °F 70 °F (1930)
Min Temperature 31 °F 35 °F 19 °F (1936)
Degree Days  
Heating Degree Days 24 22  
Month to date heating degree days 350 384  
Since 1 July heating degree days 2843 3094  
Cooling Degree Days 0 0  
Month to date cooling degree days 0 0  
Year to date cooling degree days 0 0  
Moisture  
Dew Point 34 °F    
Average Humidity 79    
Maximum Humidity 100    
Minimum Humidity 58    
Precipitation  
Precipitation T in 0.19 in 2.30 in (1983)
Month to date precipitation 0.58 3.32  
Year to date precipitation 1.93 10.19  
Snow  
Snow 0.00 in - - ()
Month to date snowfall 0.0  
Since 1 July snowfall 0.0  
Snow Depth 0.00 in    
Sea Level Pressure  
Sea Level Pressure 30.24 in    
Wind  
Wind Speed 3 mph (NE)    
Max Wind Speed 10 mph    
Max Gust Speed 36 mph    
Visibility 9 miles    
Events Fog    
T = Trace of Precipitation, MM = Missing Value Source: NWS Daily Summary

Daily Weather History Graph

Daily Weather History Graph

Search for Another Location

Airport:

Trip Planner

Search our weather history database for the weather conditions in past years. The results will help you decide how hot, cold, wet, or windy it might be!

Date:

Astronomy

Feb. 17, 2013 Rise Set
Actual Time 7:08 AM PST 5:45 PM PST
Civil Twilight 6:39 AM PST 6:15 PM PST
Nautical Twilight 6:05 AM PST 6:48 PM PST
Astronomical Twilight 5:31 AM PST 7:22 PM PST
Moon 10:48 AM PST (2/17) 1:02 AM PST (2/17)
Length of Visible Light 11h 36m
Length of Day
10h 36m
Waxing Crescent, 50% of the Moon is Illuminated
Feb 17
Waxing Crescent
Feb 17
First Quarter
Feb 25
Full
Mar 4
Last Quarter
Mar 11
New

Hourly Weather History & Observations

Time (PST) Temp. Windchill Dew Point Humidity Pressure Visibility Wind Dir Wind Speed Gust Speed Precip Events Conditions
12:54 AM 37.0 °F - 35.1 °F 93% 30.31 in 10.0 mi Calm Calm - N/A   Overcast
1:54 AM 37.9 °F - 36.0 °F 93% 30.32 in 10.0 mi Calm Calm - N/A   Overcast
2:54 AM 37.0 °F - 36.0 °F 96% 30.31 in 9.0 mi Calm Calm - N/A   Overcast
3:54 AM 37.0 °F - 35.1 °F 93% 30.31 in 10.0 mi Calm Calm - 0.00 in   Mostly Cloudy
4:54 AM 36.0 °F - 35.1 °F 97% 30.31 in 10.0 mi Calm Calm - N/A   Overcast
5:54 AM 35.6 °F 32.8 °F 33.8 °F 93% 30.29 in 10.0 mi SE 3.5 mph - N/A   Scattered Clouds
6:54 AM 32.0 °F 27.5 °F 30.9 °F 96% 30.30 in 1.5 mi SW 4.6 mph - N/A Fog Patches of Fog
7:23 AM 32.0 °F - 30.2 °F 93% 30.29 in 3.0 mi Calm Calm - N/A Fog Patches of Fog
7:54 AM 32.0 °F - 30.9 °F 96% 30.30 in 10.0 mi Calm Calm - N/A Fog Patches of Fog
8:31 AM 35.6 °F 32.8 °F 33.8 °F 93% 30.30 in 0.2 mi ESE 3.5 mph - N/A Fog Fog
8:54 AM 36.0 °F 33.3 °F 36.0 °F 100% 30.31 in 0.1 mi SSE 3.5 mph - N/A Fog Fog
9:54 AM 39.9 °F - 39.0 °F 97% 30.30 in 10.0 mi Calm Calm - N/A Fog Patches of Fog
10:54 AM 45.0 °F 43.5 °F 37.9 °F 76% 30.29 in 10.0 mi ESE 3.5 mph - N/A   Scattered Clouds
11:54 AM 48.0 °F - 36.0 °F 63% 30.28 in 10.0 mi ENE 5.8 mph - N/A   Mostly Cloudy
12:54 PM 48.9 °F - 35.1 °F 59% 30.25 in 10.0 mi Calm Calm - N/A   Mostly Cloudy
1:54 PM 46.9 °F - 32.0 °F 56% 30.24 in 10.0 mi Calm Calm - N/A   Mostly Cloudy
2:54 PM 46.9 °F - 34.0 °F 61% 30.22 in 10.0 mi North 8.1 mph - N/A   Mostly Cloudy
3:54 PM 48.0 °F - 35.1 °F 61% 30.20 in 10.0 mi NE 6.9 mph - N/A   Overcast
4:54 PM 46.0 °F 41.4 °F 35.1 °F 66% 30.18 in 10.0 mi North 9.2 mph - N/A   Overcast
5:54 PM 41.0 °F 36.4 °F 34.0 °F 76% 30.17 in 10.0 mi North 6.9 mph - N/A   Overcast
6:54 PM 39.9 °F 35.1 °F 34.0 °F 79% 30.16 in 10.0 mi NNW 6.9 mph - N/A   Mostly Cloudy
7:54 PM 37.9 °F 34.4 °F 34.0 °F 86% 30.15 in 10.0 mi NNW 4.6 mph - N/A   Mostly Cloudy
8:54 PM 36.0 °F 33.3 °F 33.1 °F 89% 30.14 in 10.0 mi NNE 3.5 mph - N/A   Mostly Cloudy
9:54 PM 34.0 °F - 32.0 °F 92% 30.14 in 10.0 mi Calm Calm - N/A   Mostly Cloudy
10:54 PM 33.1 °F 28.7 °F 30.9 °F 92% 30.13 in 10.0 mi South 4.6 mph - N/A   Mostly Cloudy
11:54 PM 34.0 °F 31.0 °F 30.9 °F 89% 30.11 in 10.0 mi West 3.5 mph - N/A   Clear